This demonstration page uses our WeatherBlox Daily Observations layout. Learn more.

Left ArrowRight Arrow

Hourly Observations for March 13, 2019

Temp ( °F °C ) Dew Point ( °F °C ) Humidity (%) Winds ( mph kmh ) Pressure ( in mb ) Visibility ( mi km ) Precip ( " mm )
12:57 am 00:57 Cloudy with Fog 43 6.1 43 6.1 100 100 E 8 13 29.60 1002 0 0 0.00 0.00
1:20 am 01:20 Cloudy with Nearby Thunderstorms 45 7 45 7 100 100 ESE 9 15 29.61 1003 0 0 0.00 0.03
1:42 am 01:42 Cloudy with Thunderstorms 45 7 45 7 100 100 E 10 17 29.59 1002 1 1 0.08 2.03
1:57 am 01:57 Cloudy with Nearby Thunderstorms 43 6.1 43 6.1 100 100 E 10 17 29.57 1001 1 1 0.08 2.03
2:06 am 02:06 Cloudy with Light Rain 45 7 43 6 93 93 E 10 17 29.58 1002 1 1 0.00 0.00
2:15 am 02:15 Cloudy with Thunderstorms 43 6 43 6 100 100 E 10 17 29.58 1002 1 1 0.01 0.25
2:19 am 02:19 Cloudy with Thunderstorms 43 6 43 6 100 100 E 10 17 29.57 1001 1 1 0.00 0.00
2:37 am 02:37 Cloudy with Light Rain 43 6 43 6 100 100 ENE 7 11 29.58 1002 0 0 0.01 0.25
2:57 am 02:57 Cloudy with Light Rain 42 5.6 42 5.6 100 100 E 9 15 29.54 1000 0 0 0.01 0.25
3:15 am 03:15 Cloudy with Nearby Thunderstorms 43 6 43 6 100 100 ENE 7 11 29.56 1001 0 0 0.00 0.03
3:29 am 03:29 Cloudy with Thunderstorms 43 6 43 6 100 100 ENE 9 15 29.55 1001 1 1 0.00 0.00
3:57 am 03:57 Cloudy with Fog 42 5.6 42 5.6 100 100 NE 7 11 29.51 999 0 0 0.05 1.27
4:15 am 04:15 Cloudy with Nearby Thunderstorms 43 6 43 6 100 100 NNE 10 17 29.53 1000 1 1 0.02 0.51
4:25 am 04:25 Cloudy with Thunderstorms 43 6 43 6 100 100 NNE 10 17 29.52 1000 1 2 0.05 1.27
4:49 am 04:49 Cloudy with Thunderstorms 43 6 43 6 100 100 NNW 6 9 29.53 1000 2 3 0.15 3.81
4:53 am 04:53 Cloudy with Thunderstorms 43 6 43 6 100 100 N 10 17 29.50 999 3 4 0.00 0.00
4:57 am 04:57 Cloudy with Thunderstorms 41 5 41 5 100 100 N 12 19 29.47 998 2 3 0.30 7.62
5:01 am 05:01 Cloudy with Thunderstorms 41 5 41 5 100 100 NNE 14 22 29.50 999 2 3 0.04 1.02
5:12 am 05:12 Cloudy with Thunderstorms 41 5 41 5 100 100 NNE 15 24 29.49 999 3 4 0.14 3.56
5:20 am 05:20 Cloudy with Thunderstorms 43 6 41 5 93 93 NE 15 24 29.47 998 4 6 0.16 4.06
5:37 am 05:37 Cloudy with Light Rain 43 6 43 6 100 100 NE 14 22 29.46 998 5 8 0.23 5.84
5:44 am 05:44 Cloudy with Light Rain 43 6 43 6 100 100 NE 13 20 29.46 998 6 10 0.25 6.35
5:57 am 05:57 Cloudy with Nearby Thunderstorms 42 5.6 42 5.6 100 100 NE 14 22 29.41 996 7 11 0.30 7.62
6:06 am 06:06 Cloudy with Nearby Thunderstorms 43 6 43 6 100 100 ENE 15 24 29.44 997 7 11 0.02 0.51
6:12 am 06:12 Cloudy with Light Rain 41 5 41 5 100 100 ENE 14 22 29.44 997 6 10 0.04 1.02
8:57 am 08:57 Cloudy with Light Rain 41 5 41 5 100 100 E 15 24 29.24 990 2 3 0.15 3.81
9:14 am 09:14 Cloudy with Light Rain 41 5 41 5 100 100 E 18 30 29.28 991 1 2 0.07 1.78
9:21 am 09:21 Cloudy with Light Rain 41 5 41 5 100 100 E 18 30 29.27 991 2 3 0.10 2.54
11:42 am 11:42 Cloudy with Light Rain 50 10 50 10 100 100 SE 26 43 29.09 985 5 8 0.00 0.03
12:57 pm 12:57 Cloudy with Light Rain 52 11.1 51 10.6 97 97 SSE 21 33 29.02 983 4 6 0.02 0.51
1:37 pm 13:37 Mostly Cloudy 55 13 54 12 94 94 S 25 41 29.00 982 10 16 0.00 0.03
5:25 pm 17:25 Cloudy with Light Rain 48 9 45 7 87 87 SSW 18 30 29.03 983 10 16 0.03 0.76
5:48 pm 17:48 Cloudy with Nearby Thunderstorms 48 9 45 7 87 87 SE 7 11 29.03 983 10 16 0.06 1.52
5:57 pm 17:57 Cloudy with Light Rain 48 8.9 45 7.2 89 89 SE 6 9 29.02 983 10 16 0.06 1.52
6:57 pm 18:57 Cloudy with Rain 48 8.9 46 7.8 93 93 ENE 9 15 29.00 982 9 14 0.08 2.03
7:07 pm 19:07 Cloudy with Light Rain 48 9 46 8 94 94 E 13 20 29.01 982 10 16 0.00 0.00
7:26 pm 19:26 Cloudy with Light Rain 48 9 46 8 94 94 E 9 15 29.01 982 9 14 0.04 1.02
7:57 pm 19:57 Cloudy with Rain 47 8.3 46 7.8 97 97 NNE 13 20 28.99 982 10 16 0.11 2.79
8:02 pm 20:02 Cloudy with Heavy Rain 46 8 46 8 100 100 NNE 15 24 29.01 982 9 14 0.02 0.51
8:19 pm 20:19 Cloudy with Rain 41 5 39 4 93 93 N 24 39 29.04 983 8 13 0.00 0.00
8:57 pm 20:57 Very Windy with Snow Likely 36 2.2 35 1.7 97 97 N 38 61 28.97 981 2 3 0.29 7.37
9:12 pm 21:12 Very Windy with Snow Likely 36 2 34 1 93 93 N 40 65 29.03 983 3 4 0.08 2.03
9:21 pm 21:21 Windy with Snow Likely 36 2 34 1 93 93 N 37 59 29.03 983 4 6 0.12 3.05
9:57 pm 21:57 Cloudy with Rain 34 1.1 33 0.6 97 97 N 33 54 29.00 982 4 6 0.24 6.10
10:57 pm 22:57 Cloudy with Light Rain 32 0 31 -0.6 96 96 N 38 61 29.02 983 8 13 0.13 3.30
11:57 pm 23:57 Cloudy with Light Wintry Mix 32 0 30 -1.1 92 92 N 40 65 29.05 984 8 13 0.02 0.51

Powered by AerisWeather